Midland, MI

2:20 AM EDT on August 23, 2017 (GMT -0400)
Barstow

Weather History for KIKW - April, 2013

Change the Weather History Date:

Monday, April 29, 2013

  Actual Average (KMBS) Record (KMBS)
Temperature  
Mean Temperature 62 °F -  
Max Temperature 71 °F 60 °F 78 °F (2004)
Min Temperature 53 °F 39 °F 28 °F (2012)
Degree Days  
Heating Degree Days 3    
Growing Degree Days 12 (Base 50)    
Moisture  
Dew Point 52 °F    
Average Humidity 72    
Maximum Humidity 99    
Minimum Humidity 46    
Precipitation  
Precipitation 0.00 in - - ()
Sea Level Pressure  
Sea Level Pressure 29.87 in    
Wind  
Wind Speed 2 mph (South)    
Max Wind Speed 9 mph    
Max Gust Speed 10 mph    
Visibility 8 miles    
Events      
Averages and records for this station are not official NWS values.
T = Trace of Precipitation, MM = Missing Value Source: NWS Daily Summary

Daily Weather History Graph

Daily Weather History Graph

Search for Another Location

Airport or City:

Trip Planner

Search our weather history database for the weather conditions in past years. The results will help you decide how hot, cold, wet, or windy it might be!

Date:

Astronomy

Apr. 29, 2013 Rise Set
Actual Time 6:31 AM EDT 8:37 PM EDT
Civil Twilight 6:00 AM EDT 9:08 PM EDT
Nautical Twilight 5:22 AM EDT 9:47 PM EDT
Astronomical Twilight 4:40 AM EDT 10:29 PM EDT
Moon 12:09 AM EDT (4/29) 9:48 AM EDT (4/29)
Length of Visible Light 15h 08m
Length of Day
14h 05m
Waning Gibbous, 80% of the Moon is Illuminated
Apr 29
Waning Gibbous
May 2
Last Quarter
May 9
New
May 18
First Quarter
May 25
Full

Hourly Weather History & Observations

Time (EDT) Temp. Dew Point Humidity Pressure Visibility Wind Dir Wind Speed Gust Speed Precip Events Conditions
12:14 AM 54.5 °F 52.7 °F 94% 29.85 in 7.0 mi Calm Calm - N/A   Overcast
12:33 AM 54.5 °F 53.1 °F 95% 29.85 in 3.0 mi Calm Calm - N/A   Overcast
12:53 AM 54.3 °F 53.6 °F 97% 29.85 in 2.0 mi Calm Calm - N/A   Overcast
1:14 AM 53.6 °F 52.9 °F 97% 29.85 in 1.8 mi Calm Calm - N/A   Overcast
1:33 AM 53.6 °F 53.1 °F 98% 29.85 in 2.5 mi Calm Calm - N/A   Overcast
1:53 AM 53.6 °F 53.2 °F 99% 29.85 in 2.5 mi Calm Calm - N/A   Overcast
2:14 AM 54.5 °F 54.0 °F 98% 29.86 in 2.5 mi Calm Calm - N/A   Overcast
2:33 AM 54.1 °F 53.6 °F 98% 29.85 in 2.5 mi Calm Calm - N/A   Overcast
2:53 AM 53.6 °F 53.1 °F 98% 29.85 in 2.0 mi Calm Calm - N/A   Overcast
3:14 AM 53.6 °F 53.4 °F 99% 29.84 in 2.5 mi Calm Calm - N/A   Overcast
3:33 AM 54.0 °F 53.6 °F 99% 29.85 in 1.2 mi Calm Calm - N/A   Overcast
3:53 AM 54.1 °F 53.8 °F 99% 29.85 in 2.0 mi WNW 3.5 mph - N/A   Overcast
4:14 AM 54.5 °F 54.0 °F 98% 29.86 in 3.0 mi Calm Calm - N/A   Overcast
4:33 AM 54.5 °F 53.8 °F 97% 29.85 in 4.0 mi Calm Calm - N/A   Overcast
4:53 AM 54.5 °F 53.6 °F 97% 29.86 in 4.0 mi Calm Calm - N/A   Overcast
5:14 AM 53.8 °F 52.9 °F 97% 29.86 in 4.0 mi Calm Calm - N/A   Overcast
5:33 AM 53.2 °F 52.7 °F 98% 29.86 in 3.0 mi Calm Calm - N/A   Overcast
5:53 AM 53.6 °F 52.9 °F 97% 29.87 in 4.0 mi Calm Calm - N/A   Overcast
6:14 AM 54.0 °F 53.2 °F 97% 29.87 in 5.0 mi Calm Calm - N/A   Overcast
6:33 AM 53.6 °F 52.7 °F 97% 29.87 in 5.0 mi Calm Calm - N/A   Overcast
6:53 AM 53.4 °F 52.7 °F 97% 29.87 in 4.0 mi Calm Calm - N/A   Overcast
7:14 AM 53.4 °F 52.7 °F 97% 29.88 in 4.0 mi Calm Calm - N/A   Overcast
7:33 AM 53.8 °F 53.1 °F 97% 29.89 in 4.0 mi Calm Calm - N/A   Overcast
7:54 AM 54.7 °F 53.6 °F 96% 29.89 in 5.0 mi Calm Calm - N/A   Overcast
8:07 AM 55.0 °F 52.9 °F 92% 29.89 in 7.0 mi Calm Calm - N/A   Overcast
8:35 AM 55.8 °F 52.5 °F 89% 29.91 in 10.0 mi Calm Calm - N/A   Overcast
8:54 AM 56.1 °F 52.0 °F 86% 29.91 in 10.0 mi WSW 3.5 mph - N/A   Overcast
9:13 AM 57.0 °F 52.0 °F 83% 29.91 in 10.0 mi Calm Calm - N/A   Overcast
9:33 AM 57.7 °F 51.3 °F 79% 29.91 in 10.0 mi SSW 3.5 mph - N/A   Overcast
9:54 AM 59.2 °F 50.9 °F 74% 29.91 in 10.0 mi Calm Calm - N/A   Mostly Cloudy
10:13 AM 59.9 °F 51.1 °F 73% 29.90 in 10.0 mi Calm Calm - N/A   Mostly Cloudy
10:34 AM 61.2 °F 51.4 °F 70% 29.90 in 10.0 mi SW 3.5 mph - N/A   Scattered Clouds
10:54 AM 63.1 °F 51.8 °F 66% 29.90 in 10.0 mi West 4.6 mph - N/A   Clear
11:13 AM 63.5 °F 51.6 °F 65% 29.89 in 10.0 mi SW 3.5 mph - N/A   Scattered Clouds
11:34 AM 64.4 °F 51.8 °F 64% 29.89 in 10.0 mi Calm Calm - N/A   Scattered Clouds
11:53 AM 66.2 °F 52.3 °F 61% 29.89 in 10.0 mi South 4.6 mph - N/A   Scattered Clouds
12:13 PM 66.0 °F 53.1 °F 63% 29.89 in 10.0 mi ESE 5.8 mph - N/A   Mostly Cloudy
12:34 PM 66.2 °F 52.5 °F 61% 29.89 in 10.0 mi SSW 5.8 mph - N/A   Overcast
12:53 PM 67.1 °F 53.2 °F 61% 29.88 in 10.0 mi SE 8.1 mph - N/A   Overcast
1:14 PM 68.2 °F 52.7 °F 58% 29.88 in 10.0 mi SSE 5.8 mph - N/A   Mostly Cloudy
1:34 PM 68.0 °F 52.7 °F 58% 29.87 in 10.0 mi SSE 9.2 mph - N/A   Mostly Cloudy
1:53 PM 70.0 °F 52.7 °F 54% 29.87 in 10.0 mi South 8.1 mph - N/A   Mostly Cloudy
2:14 PM 69.8 °F 52.7 °F 54% 29.86 in 10.0 mi SSW 5.8 mph - N/A   Scattered Clouds
2:34 PM 70.5 °F 52.5 °F 53% 29.86 in 10.0 mi South 5.8 mph - N/A   Mostly Cloudy
2:53 PM 70.3 °F 51.3 °F 51% 29.87 in 10.0 mi SSE 4.6 mph 10.4 mph N/A   Scattered Clouds
3:14 PM 70.3 °F 51.8 °F 52% 29.87 in 10.0 mi SSE 8.1 mph - N/A   Scattered Clouds
3:34 PM 70.7 °F 51.4 °F 50% 29.87 in 10.0 mi Calm Calm - N/A   Scattered Clouds
3:53 PM 70.9 °F 52.3 °F 52% 29.86 in 10.0 mi South 6.9 mph - N/A   Scattered Clouds
4:14 PM 71.2 °F 51.8 °F 50% 29.85 in 10.0 mi South 9.2 mph - N/A   Scattered Clouds
4:33 PM 71.2 °F 52.2 °F 51% 29.85 in 10.0 mi SSE 8.1 mph - N/A   Mostly Cloudy
4:54 PM 71.1 °F 51.4 °F 50% 29.84 in 10.0 mi SSW 5.8 mph - N/A   Scattered Clouds
5:14 PM 71.2 °F 51.6 °F 50% 29.84 in 10.0 mi South 6.9 mph - N/A   Mostly Cloudy
5:33 PM 71.6 °F 51.4 °F 49% 29.84 in 10.0 mi SSE 6.9 mph - N/A   Scattered Clouds
5:54 PM 71.6 °F 50.9 °F 48% 29.84 in 7.0 mi South 6.9 mph - N/A   Scattered Clouds
6:14 PM 71.6 °F 49.8 °F 46% 29.84 in 10.0 mi SSW 6.9 mph - N/A   Clear
6:33 PM 71.4 °F 50.0 °F 47% 29.85 in 10.0 mi South 8.1 mph - N/A   Clear
6:55 PM 70.9 °F 50.2 °F 48% 29.85 in 10.0 mi SSW 8.1 mph - N/A   Clear
7:13 PM 70.7 °F 50.0 °F 48% 29.85 in 10.0 mi SSW 8.1 mph - N/A   Clear
7:34 PM 70.5 °F 50.2 °F 48% 29.85 in 10.0 mi South 5.8 mph - N/A   Clear
7:54 PM 70.2 °F 50.7 °F 50% 29.85 in 10.0 mi South 3.5 mph - N/A   Clear
8:13 PM 69.1 °F 50.9 °F 52% 29.86 in 10.0 mi Calm Calm - N/A   Clear
8:34 PM 68.4 °F 50.5 °F 53% 29.85 in 10.0 mi SSE 3.5 mph - N/A   Clear
8:54 PM 67.8 °F 50.5 °F 54% 29.85 in 10.0 mi SSE 3.5 mph - N/A   Scattered Clouds
9:13 PM 68.2 °F 51.1 °F 54% 29.85 in 10.0 mi SE 6.9 mph - N/A   Scattered Clouds
9:34 PM 67.5 °F 52.7 °F 59% 29.86 in 10.0 mi SSE 5.8 mph - N/A   Overcast
9:54 PM 66.7 °F 52.7 °F 61% 29.86 in 10.0 mi SE 6.9 mph - N/A   Overcast
10:13 PM 67.1 °F 52.5 °F 59% 29.87 in 10.0 mi SE 4.6 mph - N/A   Overcast
10:34 PM 67.1 °F 52.3 °F 59% 29.87 in 10.0 mi SSE 5.8 mph - N/A   Overcast
10:54 PM 66.6 °F 52.7 °F 61% 29.88 in 10.0 mi SSE 5.8 mph - N/A   Mostly Cloudy
11:34 PM 65.1 °F 53.1 °F 65% 29.88 in 10.0 mi SSE 5.8 mph - N/A   Mostly Cloudy
11:54 PM 64.8 °F 53.2 °F 66% 29.88 in 10.0 mi SSE 3.5 mph - N/A   Mostly Cloudy